Henderson, KY

7:31 AM CST on December 13, 2019 (GMT -0600)
Henderson City-County

Weather History for KEHR - October, 2019

Change the Weather History Date:

Thursday, October 31, 2019

  Actual Average Record
Temperature  
Mean Temperature 39 °F -  
Max Temperature 48 °F 68 °F 85 °F (1933)
Min Temperature 28 °F 47 °F 27 °F (1988)
Degree Days  
Heating Degree Days 26    
Moisture  
Dew Point 35 °F    
Average Humidity 86    
Maximum Humidity 100    
Minimum Humidity 70    
Precipitation  
Precipitation 0.33 in - - ()
Sea Level Pressure  
Sea Level Pressure 30.02 in    
Wind  
Wind Speed 14 mph (West)    
Max Wind Speed 25 mph    
Max Gust Speed 32 mph    
Visibility 8 miles    
Events Rain    
Averages and records for this station are not official NWS values.
T = Trace of Precipitation, MM = Missing Value Source: NWS Daily Summary

Daily Weather History Graph

Daily Weather History Graph

Search for Another Location

Airport or City:

Astronomy

Oct. 31, 2019 Rise Set
Actual Time 7:14 AM CDT 5:53 PM CDT
Civil Twilight 6:47 AM CDT 6:20 PM CDT
Nautical Twilight 6:16 AM CDT 6:51 PM CDT
Astronomical Twilight 5:46 AM CDT 7:21 PM CDT
Moon 11:00 AM CDT (10/31) 8:52 PM CDT (10/31)
Length of Visible Light 11h 32m
Length of Day
10h 38m
Waxing Crescent, 16% of the Moon is Illuminated
Oct 31
Waxing Crescent
Nov 4
First Quarter
Nov 12
Full
Nov 19
Last Quarter
Nov 26
New

Hourly Weather History & Observations

Time (CDT) Temp. Windchill Dew Point Humidity Pressure Visibility Wind Dir Wind Speed Gust Speed Precip Events Conditions
12:18 AM 48.2 °F - 48.2 °F 100% 29.85 in 1.0 mi WNW 4.6 mph - 0.00 in Rain Light Rain
12:25 AM 48.2 °F - 48.2 °F 100% 29.84 in 1.5 mi NW 3.5 mph - 0.00 in Rain Light Rain
1:16 AM 48.2 °F - 48.2 °F 100% 29.82 in 2.0 mi West 4.6 mph - 0.00 in Rain Light Rain
1:56 AM 48.0 °F - 48.0 °F 100% 29.83 in 4.0 mi West 18.4 mph - 0.02 in Rain Light Rain
2:14 AM 48.2 °F - 46.4 °F 93% 29.83 in 2.5 mi West 15.0 mph - 0.02 in Rain Light Rain
2:22 AM 46.4 °F 40.1 °F 46.4 °F 100% 29.82 in 3.0 mi West 15.0 mph - 0.02 in Rain Light Rain
2:54 AM 46.4 °F 39.0 °F 44.6 °F 93% 29.85 in 8.0 mi West 19.6 mph - 0.05 in Rain Light Rain
3:56 AM 44.1 °F 39.5 °F 43.0 °F 96% 29.84 in 9.0 mi WNW 8.1 mph - 0.05 in Rain Light Rain
4:56 AM 42.1 °F 34.5 °F 41.0 °F 96% 29.83 in 10.0 mi WNW 15.0 mph - 0.08 in Rain Light Rain
5:56 AM 39.9 °F 29.7 °F 37.9 °F 93% 29.86 in 6.0 mi WNW 23.0 mph 27.6 mph 0.08 in Rain Light Rain
6:12 AM 39.2 °F 29.3 °F 37.4 °F 93% 29.88 in 10.0 mi West 20.7 mph 24.2 mph 0.01 in Rain Light Rain
6:21 AM 39.2 °F 30.5 °F 35.6 °F 87% 29.87 in 10.0 mi WNW 16.1 mph - 0.02 in Rain Light Rain
6:43 AM 39.2 °F 29.8 °F 35.6 °F 87% 29.87 in 10.0 mi WNW 18.4 mph 23.0 mph 0.05 in Rain Light Rain
6:56 AM 39.0 °F 30.6 °F 36.0 °F 89% 29.86 in 10.0 mi WNW 15.0 mph - 0.06 in   Overcast
7:38 AM 37.4 °F 27.5 °F 35.6 °F 93% 29.91 in 10.0 mi West 18.4 mph - 0.03 in   Overcast
7:56 AM 37.0 °F 26.4 °F 35.1 °F 93% 29.91 in 10.0 mi West 20.7 mph 26.5 mph 0.04 in   Overcast
8:18 AM 37.4 °F 27.5 °F 33.8 °F 87% 29.92 in 7.0 mi West 18.4 mph 28.8 mph N/A   Overcast
8:56 AM 36.0 °F 24.2 °F 33.1 °F 89% 29.94 in 10.0 mi West 24.2 mph 29.9 mph 0.00 in   Overcast
9:56 AM 35.1 °F 23.8 °F 32.0 °F 89% 29.97 in 10.0 mi West 20.7 mph 27.6 mph 0.00 in   Overcast
10:18 AM 35.6 °F 24.5 °F 30.2 °F 81% 29.98 in 10.0 mi WNW 20.7 mph 32.2 mph N/A   Overcast
10:56 AM 36.0 °F 24.2 °F 30.9 °F 82% 30.02 in 10.0 mi WNW 24.2 mph 28.8 mph N/A   Overcast
11:56 AM 36.0 °F 26.0 °F 30.9 °F 82% 30.04 in 10.0 mi West 17.3 mph 21.9 mph N/A   Overcast
12:56 PM 36.0 °F 26.3 °F 30.9 °F 82% 30.06 in 10.0 mi WNW 16.1 mph 24.2 mph N/A   Overcast
1:56 PM 36.0 °F 23.9 °F 28.9 °F 76% 30.09 in 10.0 mi West 25.3 mph 31.1 mph N/A   Overcast
2:56 PM 35.1 °F 23.5 °F 28.0 °F 76% 30.13 in 10.0 mi West 21.9 mph 31.1 mph N/A   Overcast
3:56 PM 35.1 °F 24.5 °F 27.0 °F 72% 30.17 in 10.0 mi West 18.4 mph 25.3 mph N/A   Overcast
4:49 PM 35.6 °F 24.8 °F 26.6 °F 70% 30.20 in 10.0 mi West 19.6 mph 24.2 mph N/A   Overcast
4:56 PM 35.1 °F 23.5 °F 26.1 °F 70% 30.21 in 10.0 mi West 21.9 mph 26.5 mph N/A   Overcast
5:56 PM 35.1 °F 24.5 °F 26.1 °F 70% 30.24 in 10.0 mi West 18.4 mph 23.0 mph N/A   Overcast
6:56 PM 35.1 °F 25.9 °F 26.1 °F 70% 30.27 in 10.0 mi West 13.8 mph - N/A   Overcast
7:56 PM 35.1 °F 27.4 °F 26.1 °F 70% 30.30 in 10.0 mi WNW 10.4 mph - N/A   Overcast
8:56 PM 34.0 °F 25.0 °F 25.0 °F 70% 30.32 in 10.0 mi NW 12.7 mph - N/A   Mostly Cloudy
9:56 PM 32.0 °F 26.4 °F 27.0 °F 82% 30.34 in 10.0 mi WSW 5.8 mph - N/A   Clear
10:56 PM 30.9 °F 27.5 °F 26.1 °F 82% 30.34 in 10.0 mi SW 3.5 mph - N/A   Clear
11:56 PM 28.0 °F 22.8 °F 26.1 °F 92% 30.34 in 10.0 mi SSW 4.6 mph - N/A   Clear